Location: *
(53.2061°S, 171.9111°E)
Time: 22:09:01
(UTC+00:00)

Daily predictions for brighter satellites

Satellite Brightness Start Highest point End
(mag) Time Altitude Azimuth Time Altitude Azimuth Time Altitude Azimuth
USA 59 Rocket 4.0 12:33:35 10° SW 12:34:54 15° SW 12:34:54 15° SW
ATLAS 3B R/B 4.5 15:17:03 23° SE 15:17:03 23° SE 15:19:51 10° ESE
SJ 16-02 4.4 15:57:02 12° E 15:57:02 12° E 15:57:37 10° E
Cosmos 2219 Rocket 4.5 16:32:38 13° S 16:32:38 13° S 16:34:27 10° SSE
USA 229 DEB 3.9 16:42:44 57° S 16:43:24 60° SSE 16:49:27 10° ENE
USA 229 3.9 16:42:45 56° S 16:43:26 59° SSE 16:49:28 10° ENE
SL-8 Rocket 4.3 16:41:20 34° NNE 16:44:04 63° E 16:50:16 10° SSE
Meteor 2-14 Rocket 4.4 16:51:01 75° NE 16:51:01 75° NE 16:56:37 10° NNE
Cosmos 2341 Rocket 4.2 16:47:49 24° N 16:51:42 68° E 16:57:57 10° SSE
Gbstr 26 Del rocket 3.9 16:56:51 59° NE 16:56:51 59° NE 17:02:07 10° ENE
Cosmos 2218 Rocket 4.3 16:50:16 10° N 16:56:30 65° E 17:02:44 10° SSE
USA 215 3.3 16:50:03 10° E 16:56:37 66° S 16:57:28 60° SSW
Cosmos 2322 Rocket 4.4 16:57:15 13° S 16:58:03 13° S 17:00:41 10° SSE
ATLAS 2AS CENTAUR R/B 4.2 16:54:08 10° N 17:00:27 35° ENE 17:06:56 10° SE
SL-16 R/B 3.2 17:07:11 34° S 17:07:11 34° S 17:10:57 10° SSE
ATLAS 3B R/B 2.9 17:04:18 45° SSW 17:05:57 58° SE 17:12:23 10° ENE
Cosmos 2221 Rocket 4.4 17:07:08 41° SE 17:08:06 49° ESE 17:12:24 10° NNE
Cosmos 1697 Rocket 3.9 17:07:48 24° S 17:10:40 39° SE 17:16:00 10° ENE
Cosmos 2237 Rocket 3.9 17:16:05 19° S 17:16:05 19° S 17:19:00 10° SSE
Cosmos 1484 Rocket 4.1 17:14:00 10° NE 17:16:29 33° E 17:16:29 33° E
Cosmos 2366 rocket 3.9 17:14:10 10° NNW 17:20:33 84° W 17:26:56 10° S
Cosmos 371 Rocket 3.6 17:24:12 53° N 17:24:12 53° N 17:27:56 10° NNE
Cosmos 2327 Rocket 4.4 17:23:45 59° WSW 17:23:45 59° WSW 17:29:43 10° S
ISS -1.5 17:25:13 22° NE 17:25:13 22° NE 17:27:48 10° E
Meteor 2-15 4.3 17:23:53 10° NNW 17:29:59 77° WSW 17:36:10 10° S
SeaSat 1 3.1 17:26:43 10° SSE 17:30:32 40° SSW 17:30:32 40° SSW
SJ 16-02 1.2 17:33:34 78° N 17:33:34 78° N 17:37:37 10° NNE
SL-16 R/B 4.4 17:30:19 11° SSW 17:33:23 17° SSE 17:36:58 10° ESE
Cosmos 1656 3.5 17:32:28 56° SW 17:33:36 74° WNW 17:39:07 10° NNE
SL-16 R/B 3.0 17:29:16 10° SSE 17:35:34 63° ENE 17:41:49 10° N
Cosmos 1980 Rocket 3.5 17:39:33 15° SSW 17:43:44 35° SE 17:48:53 10° ENE
Cosmos 1943 3.4 17:43:38 48° WSW 17:44:10 50° SW 17:49:47 10° SSE
Cosmos 1821 Rocket 3.8 17:39:05 10° NNW 17:45:13 82° W 17:51:30 10° S
MOS 1 Rocket 4.4 17:42:18 10° N 17:44:43 29° NNW 17:44:43 29° NNW
Cosmos 1727 Rocket 3.9 17:40:53 10° SSW 17:47:17 79° W 17:53:40 10° N
Meteor 2-21 Rocket 4.3 17:42:39 10° SSW 17:48:47 72° W 17:54:51 10° N
CBERS-1 3.9 17:45:27 10° NNE 17:50:38 88° W 17:55:52 10° SSW
Cosmos 2285 Rocket 4.2 17:50:21 39° W 17:52:10 49° SW 17:58:29 10° SSE
USA 32 3.9 17:47:23 10° N 17:52:40 84° W 17:58:01 10° S
Meteor 2-15 Rocket 4.3 17:47:33 10° NNW 17:53:41 72° WSW 17:59:51 10° S
Cosmos 1190 Rocket 3.9 17:50:55 26° SSW 17:53:58 86° WNW 17:59:17 10° NNE
Cosmos 1833 Rocket 4.3 17:49:01 10° N 17:54:06 35° ENE 17:59:13 10° SE
Cosmos 1867 4.1 17:49:08 10° NNW 17:54:27 60° NE 17:59:48 10° SE
Cosmos 2123 Rocket 4.2 17:50:19 10° S 17:56:36 75° ESE 18:02:50 10° NNE
SMAP 3.0 17:52:10 10° N 17:56:53 77° WNW 18:00:51 15° SSW
USA 307 4.4 17:58:18 14° NE 17:58:18 14° NE 17:58:55 10° ENE
ARIANE 5 R/B 3.0 17:55:37 10° NNE 18:00:33 61° ESE 18:05:36 10° S
Cosmos 2360 4.3 17:58:27 35° SW 18:00:40 55° WNW 18:06:15 10° N
Cosmos 407 Rocket 4.0 18:06:06 36° W 18:06:27 36° WNW 18:11:16 10° NNW
Meteor 2-16 Rocket 4.4 18:01:08 10° SSW 18:07:16 62° W 18:13:22 10° N
Cosmos 2084 3.3 18:06:48 47° WNW 18:07:50 68° SW 18:12:00 10° SE
Cosmos 2360 Rocket 4.4 18:04:47 10° SSW 18:08:14 16° SSE 18:11:41 10° ESE
Cosmos 1954 Rocket 3.9 18:06:01 20° SSW 18:09:51 77° WNW 18:15:11 10° NNE
Meteor 1-28 Rocket 3.3 18:06:52 10° SSE 18:10:12 63° E 18:13:30 10° N
YAOGAN 1 3.6 18:08:46 10° NE 18:12:53 46° ESE 18:17:04 10° S
Cosmos 2333 Rocket 4.2 18:09:52 10° SSW 18:14:15 21° SSE 18:18:36 10° ESE
Cosmos 1934 Rocket 4.4 18:09:07 10° N 18:15:27 69° E 18:21:53 10° SSE
Cosmos 1603 3.7 18:13:05 19° NW 18:17:03 57° SW 18:22:40 10° SSE
Cosmos 1420 Rocket 4.0 18:12:21 10° NNW 18:17:33 86° ENE 18:22:49 10° SSE
Cosmos 2219 Rocket 4.4 18:14:50 10° SSW 18:18:00 15° SSE 18:21:09 10° SE
Cosmos 1975 Rocket 3.2 18:13:44 10° S 18:18:16 81° E 18:22:46 10° NNE
Cosmos 1315 Rocket 2.6 18:16:28 10° NNW 18:20:19 72° WSW 18:24:14 10° S
Cosmos 1869 3.1 18:21:55 10° NNW 18:25:20 48° WSW 18:28:50 10° S
BREEZE-M DEB (TANK) 3.8 18:21:21 15° WNW 18:26:52 47° N 18:29:39 10° E
USA 281 3.2 18:21:42 10° SSE 18:28:20 73° WSW 18:34:56 10° NW
CZ-4C R/B 3.9 18:21:33 10° NNW 18:30:01 52° NE 18:36:58 10° SE
Blok-L 3.4 18:29:17 32° SSW 18:30:12 64° SE 18:33:42 10° ENE
SL-08 R/B 4.5 18:26:28 10° NNW 18:32:55 79° WSW 18:39:20 10° S
Cosmos 676 Rocket 4.0 18:28:35 13° SSW 18:33:24 68° WNW 18:38:42 10° NNE
Landsat 7 4.5 18:29:34 10° NNW 18:33:47 32° W 18:36:51 16° SW
USA 229 DEB 3.8 18:30:09 21° WSW 18:34:08 46° WNW 18:39:45 10° NNE
USA 229 3.8 18:30:10 21° WSW 18:34:12 46° WNW 18:39:49 10° NNE
Cosmos 2251 Rocket 3.9 18:31:04 19° SW 18:34:30 42° WNW 18:39:26 10° N
Resurs 01 Rocket 2.8 18:31:03 10° NE 18:35:18 44° ESE 18:39:34 10° S
Cosmos 1300 Rocket 3.5 18:31:17 10° NNW 18:35:37 61° WSW 18:40:00 10° S
AQUARIUS 4.2 18:31:36 10° N 18:36:00 60° WNW 18:40:29 10° SSW
UNK 3.7 18:31:24 10° SSE 18:36:07 89° W 18:40:46 10° NNW
USA 215 3.3 18:32:52 10° ENE 18:39:30 89° NNW 18:44:48 17° WSW
Cosmos 1908 Rocket 4.0 18:36:22 10° NW 18:40:34 38° WSW 18:44:47 10° S
Cosmos 1862 3.1 18:38:35 10° SSW 18:42:15 57° W 18:45:52 10° N
Cosmos 2084 Rocket 3.3 18:39:51 21° SW 18:42:34 85° NW 18:46:41 10° NE
Cosmos 2322 Rocket 4.1 18:40:06 10° SSW 18:44:25 21° SSE 18:48:43 10° ESE
ERS-1 4.5 18:39:45 10° NNE 18:44:57 76° WNW 18:50:09 10° SSW
Cosmos 332 Rocket 4.1 18:45:16 13° SW 18:49:26 48° WNW 18:54:08 10° N
Cosmos 1484 Rocket 3.8 18:47:25 10° NW 18:50:03 20° W 18:50:03 20° W
COSMO-SKYMED 1 4.1 18:46:21 10° SSE 18:50:16 38° E 18:54:09 10° NNE
ATLAS 2AS CENTAUR R/B 2.8 18:43:39 10° NW 18:50:54 80° SW 18:58:21 10° SE
SL-16 R/B 3.8 18:49:03 14° SW 18:51:10 17° SSW 18:54:51 10° SSE
Cosmos 1697 Rocket 2.9 18:49:32 11° SW 18:54:50 53° WNW 19:00:21 10° N
Cosmos 1782 Rocket 3.7 18:50:37 10° NNW 18:54:55 49° WSW 18:59:15 10° S
ATLAS 3B R/B 2.9 18:51:33 15° SW 18:56:32 48° NW 19:02:51 10° NNE
Cosmos 1850 Rocket 4.1 18:53:30 10° SSW 18:58:56 86° ESE 19:04:17 10° NNE
Cosmos 1356 Rocket 3.7 18:55:16 10° NW 18:59:12 44° WSW 19:03:13 10° S
Cosmos 2369 4.3 18:55:19 10° SSW 19:00:59 57° SE 19:06:34 10° NE
Cosmos 2237 Rocket 4.2 18:58:41 10° SSW 19:01:14 13° S 19:03:48 10° SSE
ISS -3.1 18:58:11 11° WNW 19:01:27 56° NNE 19:04:52 10° E
SKYMED 2 3.6 19:02:27 10° SSE 19:06:55 79° WSW 19:11:19 10° NNW
CZ-2D R/B 3.4 19:04:52 10° NNW 19:07:36 32° W 19:10:24 10° SSW
SeaSat 1 4.1 19:04:54 10° S 19:07:51 16° SSW 19:10:08 12° WSW
SJ-12 4.4 19:04:35 10° NNW 19:08:06 35° W 19:11:41 10° SSW
SJ-6B 3.7 19:05:45 10° NE 19:09:19 47° ESE 19:12:57 10° S
SJ 16-02 3.1 19:10:06 12° W 19:10:36 13° W 19:12:27 10° WNW
Cosmos 2058 3.4 19:07:23 10° SSW 19:11:07 36° W 19:14:48 10° NNW
SPOT 1/Viking Rocket 4.3 19:07:41 10° NNW 19:12:24 34° W 19:17:12 10° SSW
Meteor 2-3 Rocket 4.1 19:07:30 10° S 19:13:21 74° ESE 19:19:06 10° NNE
CARTOSAT-1 3.5 19:09:25 10° N 19:13:38 66° WNW 19:17:56 10° SSW
Cosmos 1624 Rocket 4.0 19:08:33 10° NW 19:13:53 67° WSW 19:19:15 10° SSE
Cosmos 2056 Rocket 3.5 19:08:49 10° NW 19:13:56 64° WSW 19:19:12 10° SSE
USA 308 1.7 19:15:00 20° WNW 19:15:41 32° NNW 19:18:02 10° NE
SL-16 R/B 3.2 19:13:14 10° S 19:18:50 34° SW 19:24:24 10° WNW
SAR-Lupe-1 4.0 19:15:24 10° NNE 19:18:59 87° WNW 19:22:38 10° SSW
Thor Agena Rocket 4.3 19:14:17 10° NNW 19:19:06 35° W 19:24:00 10° SSW
SL-16 R/B 3.3 19:13:44 10° SSW 19:19:07 40° SE 19:24:30 10° ENE
USA 307 0.6 19:22:34 10° WNW 19:24:30 53° NNE 19:25:33 10° E
SPOT 5 3.9 19:21:06 10° NE 19:26:12 52° ESE 19:31:09 10° S
Cosmos 968 Rocket 4.0 19:22:54 10° SW 19:27:42 40° WNW 19:32:28 10° N
Cosmos 1980 Rocket 2.3 19:22:30 10° SW 19:28:05 62° WNW 19:33:39 10° NNE
CZ-4 R/B 3.1 19:27:40 10° NE 19:31:09 31° ESE 19:34:39 10° S
Cosmos 1536 Rocket 3.6 19:26:59 10° SSW 19:31:26 71° W 19:35:47 10° N
Radarsat Rocket 4.4 19:26:03 10° N 19:32:24 62° WNW 19:39:42 10° SSW
Cosmos 1833 Rocket 2.9 19:32:17 10° NW 19:37:50 54° SW 19:43:27 10° SSE
Cosmos 1867 4.0 19:33:09 10° WNW 19:38:17 42° SSW 19:43:26 10° SE
ARIANE 5 R/B 3.6 19:35:56 10° NW 19:40:01 24° W 19:44:08 10° SW
GEOS 3 Rocket 4.1 19:36:00 10° ENE 19:40:55 54° SE 19:45:52 10° SW
